When you browse on this site, cookies collect data to enhance your experience and personalize the content and advertising you see.
Visit our Privacy Policy to learn more. By continuing to use the site, you agree to this use of cookies and data.
EN

Hourly Weather Drecha

Today, 4 July, Saturday

Time Temperature Precipitation Wind Pressure Humidity
00:00 +16°C° 0 mm 1 mps 750 mmHg 78%
01:00 +16°C° 0 mm 1 mps 751 mmHg 78%
02:00 +16°C° 0 mm 1 mps 751 mmHg 78%
03:00 +16°C° 0 mm 1 mps 751 mmHg 82%
04:00 +15°C° 0 mm 1 mps 751 mmHg 85%
05:00 +15°C° 0 mm 1 mps 751 mmHg 88%
06:00 +17°C° 0 mm 2 mps 751 mmHg 82%
07:00 +18°C° 0 mm 2 mps 751 mmHg 75%
08:00 +20°C° 0 mm 2 mps 751 mmHg 68%
09:00 +21°C° 0 mm 3 mps 751 mmHg 63%
10:00 +22°C° 0 mm 3 mps 751 mmHg 59%
11:00 +24°C° 0 mm 3 mps 751 mmHg 54%
12:00 +23°C° 0 mm 4 mps 751 mmHg 51%
13:00 +25°C° 0 mm 4 mps 751 mmHg 48%
14:00 +25°C° 0 mm 4 mps 751 mmHg 45%
15:00 +25°C° 0 mm 4 mps 751 mmHg 47%
16:00 +25°C° 0 mm 4 mps 751 mmHg 49%
17:00 +25°C° 0 mm 3 mps 750 mmHg 51%
18:00 +22°C° 0 mm 3 mps 751 mmHg 58%
19:00 +21°C° 0 mm 2 mps 751 mmHg 65%
20:00 +19°C° 0 mm 2 mps 751 mmHg 73%
21:00 +19°C° 0 mm 2 mps 751 mmHg 76%
22:00 +18°C° 0 mm 2 mps 751 mmHg 78%
23:00 +17°C° 0 mm 2 mps 750 mmHg 81%

Tomorrow, 5 July, Sunday

Time Temperature Precipitation Wind Pressure Humidity
00:00 +17°C° 0 mm 2 mps 750 mmHg 81%
01:00 +17°C° 0 mm 3 mps 750 mmHg 80%
02:00 +17°C° 0 mm 3 mps 750 mmHg 79%
03:00 +17°C° 0 mm 3 mps 750 mmHg 80%
04:00 +17°C° 0 mm 3 mps 749 mmHg 80%
05:00 +18°C° 0 mm 3 mps 749 mmHg 80%
06:00 +19°C° 0 mm 4 mps 749 mmHg 77%
07:00 +20°C° 0 mm 4 mps 749 mmHg 73%
08:00 +21°C° 0 mm 4 mps 749 mmHg 70%
09:00 +20°C° 0.2 mm 4 mps 749 mmHg 76%
10:00 +19°C° 0.2 mm 4 mps 748 mmHg 82%
11:00 +19°C° 0.2 mm 4 mps 748 mmHg 88%
12:00 +20°C° 0.2 mm 4 mps 748 mmHg 84%
13:00 +21°C° 0.2 mm 4 mps 748 mmHg 80%
14:00 +22°C° 0.2 mm 5 mps 748 mmHg 76%
15:00 +22°C° 0.2 mm 4 mps 747 mmHg 74%
16:00 +23°C° 0.2 mm 4 mps 747 mmHg 72%
17:00 +23°C° 0.2 mm 4 mps 747 mmHg 70%
18:00 +22°C° 0.1 mm 3 mps 747 mmHg 76%
19:00 +21°C° 0.1 mm 3 mps 747 mmHg 81%
20:00 +20°C° 0.1 mm 2 mps 747 mmHg 87%
21:00 +19°C° 0 mm 2 mps 747 mmHg 89%
22:00 +19°C° 0 mm 3 mps 746 mmHg 90%
23:00 +18°C° 0 mm 3 mps 746 mmHg 92%

Day after tomorrow, 6 July, Monday

Time Temperature Precipitation Wind Pressure Humidity
00:00 +18°C° 0 mm 3 mps 746 mmHg 92%
01:00 +18°C° 0 mm 3 mps 746 mmHg 91%
02:00 +18°C° 0 mm 4 mps 746 mmHg 91%
03:00 +19°C° 0 mm 4 mps 745 mmHg 89%
04:00 +19°C° 0 mm 4 mps 745 mmHg 88%
05:00 +20°C° 0 mm 4 mps 745 mmHg 86%
06:00 +20°C° 0.1 mm 4 mps 745 mmHg 86%
07:00 +20°C° 0.1 mm 4 mps 745 mmHg 86%
08:00 +20°C° 0.1 mm 5 mps 745 mmHg 86%
09:00 +21°C° 0.1 mm 4 mps 745 mmHg 85%
10:00 +21°C° 0.1 mm 4 mps 745 mmHg 84%
11:00 +21°C° 0.1 mm 4 mps 745 mmHg 84%
12:00 +21°C° 0.1 mm 4 mps 745 mmHg 81%
13:00 +22°C° 0.1 mm 4 mps 744 mmHg 78%
14:00 +22°C° 0.1 mm 4 mps 744 mmHg 75%
15:00 +22°C° 0 mm 3 mps 744 mmHg 74%
16:00 +22°C° 0 mm 3 mps 744 mmHg 72%
17:00 +21°C° 0 mm 3 mps 745 mmHg 70%
18:00 +21°C° 0 mm 3 mps 745 mmHg 73%
19:00 +20°C° 0 mm 2 mps 745 mmHg 77%
20:00 +19°C° 0 mm 2 mps 745 mmHg 80%
21:00 +18°C° 0 mm 2 mps 745 mmHg 83%
22:00 +18°C° 0 mm 2 mps 745 mmHg 85%
23:00 +17°C° 0 mm 2 mps 745 mmHg 88%

7 July, Tuesday

Time Temperature Precipitation Wind Pressure Humidity
00:00 +17°C° 0 mm 2 mps 745 mmHg 88%
01:00 +16°C° 0 mm 2 mps 745 mmHg 89%
02:00 +16°C° 0 mm 2 mps 746 mmHg 90%
03:00 +16°C° 0 mm 2 mps 746 mmHg 87%
04:00 +15°C° 0 mm 2 mps 746 mmHg 84%
05:00 +15°C° 0 mm 2 mps 746 mmHg 82%
06:00 +16°C° 0 mm 2 mps 746 mmHg 77%
07:00 +16°C° 0 mm 3 mps 746 mmHg 71%
08:00 +17°C° 0 mm 3 mps 747 mmHg 66%
09:00 +18°C° 0 mm 3 mps 747 mmHg 61%
10:00 +20°C° 0 mm 4 mps 747 mmHg 55%
11:00 +21°C° 0 mm 4 mps 747 mmHg 50%
12:00 +22°C° 0 mm 4 mps 747 mmHg 48%
13:00 +22°C° 0 mm 5 mps 747 mmHg 47%
14:00 +22°C° 0 mm 5 mps 747 mmHg 45%
15:00 +22°C° 0.1 mm 5 mps 747 mmHg 48%
16:00 +21°C° 0.1 mm 5 mps 747 mmHg 51%
17:00 +21°C° 0.1 mm 5 mps 747 mmHg 54%
18:00 +19°C° 0 mm 4 mps 747 mmHg 59%
19:00 +18°C° 0 mm 3 mps 748 mmHg 64%
20:00 +16°C° 0 mm 3 mps 748 mmHg 69%
21:00 +15°C° 0 mm 2 mps 748 mmHg 75%
22:00 +13°C° 0 mm 2 mps 749 mmHg 81%
23:00 +12°C° 0 mm 2 mps 749 mmHg 86%

8 July, Wednesday

Time Temperature Precipitation Wind Pressure Humidity
00:00 +10°C° 0 mm 2 mps 749 mmHg 88%
01:00 +10°C° 0 mm 2 mps 749 mmHg 91%
02:00 +9°C° 0 mm 2 mps 749 mmHg 93%
03:00 +9°C° 0 mm 2 mps 749 mmHg 92%
04:00 +9°C° 0 mm 2 mps 750 mmHg 91%
05:00 +9°C° 0 mm 2 mps 750 mmHg 91%
06:00 +12°C° 0 mm 2 mps 750 mmHg 83%
07:00 +13°C° 0 mm 3 mps 750 mmHg 75%
08:00 +16°C° 0 mm 3 mps 750 mmHg 68%
09:00 +17°C° 0 mm 3 mps 750 mmHg 62%
10:00 +19°C° 0 mm 3 mps 750 mmHg 56%
11:00 +20°C° 0 mm 3 mps 750 mmHg 50%
12:00 +20°C° 0.2 mm 3 mps 750 mmHg 50%
13:00 +20°C° 0.2 mm 3 mps 750 mmHg 51%
14:00 +21°C° 0.2 mm 4 mps 749 mmHg 52%
15:00 +19°C° 0.7 mm 3 mps 749 mmHg 62%
16:00 +18°C° 0.7 mm 3 mps 749 mmHg 73%
17:00 +17°C° 0.7 mm 2 mps 750 mmHg 83%
18:00 +16°C° 0.5 mm 2 mps 750 mmHg 86%
19:00 +15°C° 0.5 mm 2 mps 750 mmHg 89%
20:00 +14°C° 0.5 mm 2 mps 750 mmHg 93%
21:00 +13°C° 0 mm 2 mps 750 mmHg 94%
22:00 +12°C° 0 mm 2 mps 750 mmHg 96%
23:00 +10°C° 0 mm 2 mps 751 mmHg 97%

9 July, Thursday

Time Temperature Precipitation Wind Pressure Humidity
00:00 +10°C° 0 mm 2 mps 751 mmHg 97%
01:00 +9°C° 0 mm 2 mps 751 mmHg 98%
02:00 +10°C° 0 mm 1 mps 751 mmHg 98%
03:00 +9°C° 0 mm 2 mps 751 mmHg 98%
04:00 +9°C° 0 mm 2 mps 752 mmHg 98%
05:00 +9°C° 0 mm 2 mps 752 mmHg 98%
06:00 +12°C° 0 mm 2 mps 752 mmHg 94%
07:00 +13°C° 0 mm 2 mps 752 mmHg 90%
08:00 +15°C° 0 mm 2 mps 752 mmHg 86%
09:00 +16°C° 0 mm 2 mps 752 mmHg 77%
10:00 +18°C° 0 mm 2 mps 752 mmHg 68%
11:00 +20°C° 0 mm 2 mps 752 mmHg 58%
12:00 +20°C° 0 mm 3 mps 752 mmHg 55%
13:00 +21°C° 0 mm 3 mps 752 mmHg 52%
14:00 +21°C° 0 mm 3 mps 751 mmHg 48%
15:00 +21°C° 0 mm 3 mps 751 mmHg 48%
16:00 +21°C° 0 mm 3 mps 751 mmHg 48%
17:00 +21°C° 0 mm 3 mps 751 mmHg 48%
18:00 +20°C° 0 mm 2 mps 751 mmHg 56%
19:00 +18°C° 0 mm 2 mps 750 mmHg 64%
20:00 +17°C° 0 mm 2 mps 750 mmHg 72%
21:00 +17°C° 0 mm 2 mps 750 mmHg 73%
22:00 +16°C° 0 mm 3 mps 750 mmHg 74%
23:00 +16°C° 0 mm 3 mps 750 mmHg 75%
Show more